{"data":{"norad_id":53721,"intl_designator":"2022-107X","name":"STARLINK-4707","alt_names":[],"object_type":"PAYLOAD","status":"ACTIVE","operator":null,"country":"US","launch_date":"2022-09-05","launch_site_code":"AFETR","launch_vehicle":null,"mission":null,"orbit_class":"UNKNOWN","rcs_meters":null,"size_class":null,"mass_kg":null,"dimensions":null,"purposes":["comms"],"wikipedia_slug":null,"has_3d_model":false,"image_url":null,"decayed_at":null,"tle_current":{"epoch":"2026-05-25T01:11:13.057152Z","epoch_age_seconds":74814,"freshness":"FRESH","line1":"1 53721U 22107X   26145.04945668  .00005135  00000+0  34071-3 0  9991","line2":"2 53721  53.2134 271.1614 0001955  84.3032 275.8183 15.08814844205947","mean_motion":15.08814844,"eccentricity":0.0001955,"inclination_deg":53.2134,"raan_deg":271.1614,"arg_perigee_deg":84.3032,"mean_anomaly_deg":275.8183,"bstar":0.00034071,"rev_number":20594,"period_min":95.439145878392,"perigee_km":538.46782121201,"apogee_km":541.17274250922,"semimajor_km":6917.9572818606,"source":"CELESTRAK","updated_at":"2026-05-25T13:38:17.535298Z"}}}